| time (UTC) | temp C | wind direction | speed KPH | gust KPH | rain 1hr cm | rain 24hr cm | rain mn cm | humidity % | barometer mb |
| 20260504001631 | 26 | 0.0 | 0.0 | 0.00 | 0.00 | 0.00 | 43 | 1011.3 | |
| 20260504000624 | 26 | 357 | 3.2 | 8.0 | 0.00 | 0.00 | 0.00 | 45 | 1011.3 |
| 20260503235632 | 26 | 337 | 3.2 | 9.7 | 0.00 | 0.00 | 0.00 | 44 | 1011.5 |
| 20260503234623 | 25 | 11 | 3.2 | 4.8 | 0.00 | 0.00 | 0.00 | 46 | 1011.5 |
| 20260503233632 | 25 | 344 | 3.2 | 9.7 | 0.00 | 0.00 | 0.00 | 46 | 1011.6 |
| 20260503232623 | 25 | 32 | 4.8 | 9.7 | 0.00 | 0.00 | 0.00 | 46 | 1011.8 |
| 20260503231631 | 25 | 42 | 3.2 | 9.7 | 0.00 | 0.00 | 0.00 | 45 | 1012.0 |
| 20260503230623 | 25 | 295 | 6.4 | 14.5 | 0.00 | 0.00 | 0.00 | 45 | 1012.1 |
| 20260503225631 | 25 | 343 | 3.2 | 8.0 | 0.00 | 0.00 | 0.00 | 46 | 1012.3 |
| 20260503224644 | 25 | 22 | 4.8 | 12.9 | 0.00 | 0.00 | 0.00 | 46 | 1012.4 |
| 20260503223631 | 25 | 323 | 4.8 | 8.0 | 0.00 | 0.00 | 0.00 | 47 | 1012.6 |
| 20260503222623 | 26 | 15 | 8.0 | 14.5 | 0.00 | 0.00 | 0.00 | 46 | 1012.7 |
| 20260503221632 | 25 | 359 | 3.2 | 8.0 | 0.00 | 0.00 | 0.00 | 45 | 1012.8 |
| 20260503220623 | 25 | 318 | 11.3 | 20.9 | 0.00 | 0.00 | 0.00 | 47 | 1012.9 |
| 20260503215652 | 25 | 312 | 6.4 | 16.1 | 0.00 | 0.00 | 0.00 | 49 | 1013.0 |
| 20260503214624 | 25 | 314 | 8.0 | 14.5 | 0.00 | 0.00 | 0.00 | 47 | 1013.0 |
| 20260503213631 | 25 | 11 | 8.0 | 16.1 | 0.00 | 0.00 | 0.00 | 47 | 1013.1 |
| 20260503212623 | 25 | 314 | 8.0 | 16.1 | 0.00 | 0.00 | 0.00 | 42 | 1013.2 |
| 20260503211631 | 26 | 292 | 4.8 | 9.7 | 0.00 | 0.00 | 0.00 | 41 | 1013.2 |
| 20260503210624 | 25 | 15 | 4.8 | 9.7 | 0.00 | 0.00 | 0.00 | 42 | 1013.3 |
| 20260503205651 | 25 | 349 | 8.0 | 17.7 | 0.00 | 0.00 | 0.00 | 43 | 1013.5 |
| 20260503204624 | 24 | 315 | 6.4 | 12.9 | 0.00 | 0.00 | 0.00 | 44 | 1013.6 |
| 20260503203652 | 24 | 340 | 8.0 | 14.5 | 0.00 | 0.00 | 0.00 | 45 | 1013.8 |
| 20260503202700 | 24 | 281 | 8.0 | 17.7 | 0.00 | 0.00 | 0.00 | 45 | 1013.9 |
| 20260503201632 | 23 | 307 | 11.3 | 24.1 | 0.00 | 0.00 | 0.00 | 45 | 1014.0 |
| 20260503200640 | 24 | 14 | 4.8 | 14.5 | 0.00 | 0.00 | 0.00 | 47 | 1014.0 |
| 20260503195631 | 23 | 318 | 6.4 | 16.1 | 0.00 | 0.00 | 0.00 | 48 | 1014.2 |
| 20260503194623 | 24 | 339 | 8.0 | 24.1 | 0.00 | 0.00 | 0.00 | 48 | 1014.4 |
| 20260503193632 | 24 | 337 | 4.8 | 16.1 | 0.00 | 0.00 | 0.00 | 47 | 1014.5 |
| 20260503192624 | 24 | 350 | 6.4 | 12.9 | 0.00 | 0.00 | 0.00 | 48 | 1014.6 |
| 20260503191753 | 24 | 12 | 6.4 | 12.9 | 0.00 | 0.00 | 0.00 | 51 | 1014.7 |
| 20260503190623 | 25 | 317 | 3.2 | 9.7 | 0.00 | 0.00 | 0.00 | 50 | 1014.8 |
| 20260503185632 | 23 | 309 | 6.4 | 11.3 | 0.00 | 0.00 | 0.00 | 53 | 1014.9 |
| 20260503184624 | 23 | 310 | 6.4 | 11.3 | 0.00 | 0.00 | 0.00 | 54 | 1014.9 |
| 20260503183632 | 22 | 328 | 6.4 | 11.3 | 0.00 | 0.00 | 0.00 | 55 | 1015.0 |
| 20260503182624 | 22 | 300 | 6.4 | 12.9 | 0.00 | 0.00 | 0.00 | 57 | 1015.0 |
| 20260503181631 | 22 | 318 | 4.8 | 14.5 | 0.00 | 0.00 | 0.00 | 56 | 1015.1 |
| 20260503180644 | 22 | 304 | 6.4 | 12.9 | 0.00 | 0.00 | 0.00 | 56 | 1015.2 |
| 20260503175632 | 22 | 292 | 4.8 | 9.7 | 0.00 | 0.00 | 0.00 | 55 | 1015.2 |
| 20260503174644 | 22 | 292 | 6.4 | 12.9 | 0.00 | 0.00 | 0.00 | 57 | 1015.4 |
| 20260503173632 | 21 | 311 | 6.4 | 9.7 | 0.00 | 0.00 | 0.00 | 60 | 1015.4 |
| 20260503172624 | 21 | 318 | 3.2 | 8.0 | 0.00 | 0.00 | 0.00 | 59 | 1015.4 |
| 20260503171632 | 21 | 17 | 4.8 | 11.3 | 0.00 | 0.00 | 0.00 | 60 | 1015.4 |
| 20260503170623 | 21 | 353 | 3.2 | 11.3 | 0.00 | 0.00 | 0.00 | 61 | 1015.5 |
| 20260503150640 | 17 | 34 | 4.8 | 9.7 | 0.00 | 0.00 | 0.00 | 69 | 1015.8 |
| 20260503130624 | 14 | 53 | 3.2 | 4.8 | 0.00 | 0.00 | 0.00 | 79 | 1015.6 |
| 20260503110625 | 15 | 37 | 1.6 | 3.2 | 0.00 | 0.00 | 0.00 | 71 | 1015.8 |
| 20260503081633 | 17 | 42 | 6.4 | 11.3 | 0.00 | 0.00 | 0.00 | 61 | 1015.8 |
| 20260503080640 | 17 | 19 | 3.2 | 8.0 | 0.00 | 0.00 | 0.00 | 60 | 1015.8 |
| 20260503072624 | 18 | 47 | 4.8 | 9.7 | 0.00 | 0.00 | 0.00 | 58 | 1015.7 |
| 20260503071704 | 18 | 37 | 1.6 | 4.8 | 0.00 | 0.00 | 0.00 | 58 | 1015.7 |
| 20260503070624 | 18 | 31 | 3.2 | 8.0 | 0.00 | 0.00 | 0.00 | 58 | 1015.7 |
| 20260503054624 | 18 | 44 | 6.4 | 11.3 | 0.00 | 0.00 | 0.00 | 58 | 1015.5 |
| 20260503053633 | 18 | 56 | 6.4 | 12.9 | 0.00 | 0.00 | 0.00 | 58 | 1015.5 |
| 20260503052624 | 19 | 28 | 4.8 | 9.7 | 0.00 | 0.00 | 0.00 | 58 | 1015.6 |
| 20260503051652 | 19 | 52 | 4.8 | 9.7 | 0.00 | 0.00 | 0.00 | 57 | 1015.5 |
| 20260503050625 | 19 | 44 | 4.8 | 9.7 | 0.00 | 0.00 | 0.00 | 57 | 1015.5 |
| 20260503045632 | 19 | 31 | 8.0 | 16.1 | 0.00 | 0.00 | 0.00 | 57 | 1015.5 |
| 20260503044624 | 19 | 44 | 6.4 | 9.7 | 0.00 | 0.00 | 0.00 | 57 | 1015.4 |
| 20260503043632 | 20 | 29 | 6.4 | 11.3 | 0.00 | 0.00 | 0.00 | 56 | 1015.4 |
| 20260503042624 | 20 | 41 | 6.4 | 12.9 | 0.00 | 0.00 | 0.00 | 56 | 1015.2 |
| 20260503041632 | 20 | 62 | 6.4 | 11.3 | 0.00 | 0.00 | 0.00 | 56 | 1015.1 |
| 20260503040644 | 20 | 41 | 8.0 | 12.9 | 0.00 | 0.00 | 0.00 | 55 | 1015.0 |
| 20260503035632 | 20 | 40 | 4.8 | 9.7 | 0.00 | 0.00 | 0.00 | 55 | 1014.9 |
| 20260503034624 | 20 | 38 | 6.4 | 11.3 | 0.00 | 0.00 | 0.00 | 55 | 1014.8 |
| 20260503033632 | 20 | 41 | 4.8 | 11.3 | 0.00 | 0.00 | 0.00 | 55 | 1014.7 |
| 20260503032624 | 20 | 28 | 4.8 | 9.7 | 0.00 | 0.00 | 0.00 | 56 | 1014.5 |
| 20260503031632 | 20 | 28 | 4.8 | 8.0 | 0.00 | 0.00 | 0.00 | 57 | 1014.5 |
| 20260503030645 | 20 | 28 | 4.8 | 11.3 | 0.00 | 0.00 | 0.00 | 56 | 1014.4 |
| 20260503025633 | 21 | 25 | 8.0 | 12.9 | 0.00 | 0.00 | 0.00 | 57 | 1014.3 |
| 20260503024624 | 21 | 15 | 6.4 | 11.3 | 0.00 | 0.00 | 0.00 | 56 | 1014.3 |
| 20260503023632 | 21 | 24 | 6.4 | 11.3 | 0.00 | 0.00 | 0.00 | 56 | 1014.3 |
| 20260503022624 | 21 | 353 | 8.0 | 16.1 | 0.00 | 0.00 | 0.00 | 57 | 1014.2 |
| 20260503021632 | 21 | 19 | 4.8 | 12.9 | 0.00 | 0.00 | 0.00 | 56 | 1014.2 |
| 20260503020625 | 21 | 24 | 4.8 | 11.3 | 0.00 | 0.00 | 0.00 | 56 | 1014.2 |
| 20260503015814 | 21 | 14 | 6.4 | 14.5 | 0.00 | 0.00 | 0.00 | 55 | 1014.3 |
| 20260503014625 | 21 | 21 | 8.0 | 16.1 | 0.00 | 0.00 | 0.00 | 56 | 1014.2 |
| 20260503013632 | 22 | 20 | 8.0 | 20.9 | 0.00 | 0.00 | 0.00 | 55 | 1014.3 |
| 20260503012625 | 22 | 23 | 8.0 | 16.1 | 0.00 | 0.00 | 0.00 | 54 | 1014.3 |
| 20260503011633 | 22 | 15 | 8.0 | 14.5 | 0.00 | 0.00 | 0.00 | 54 | 1014.3 |
| 20260503010624 | 22 | 14 | 9.7 | 12.9 | 0.00 | 0.00 | 0.00 | 53 | 1014.3 |
| 20260503005632 | 22 | 357 | 6.4 | 14.5 | 0.00 | 0.00 | 0.00 | 54 | 1014.3 |
| 20260503004640 | 22 | 3 | 8.0 | 14.5 | 0.00 | 0.00 | 0.00 | 55 | 1014.4 |
| 20260503003653 | 22 | 359 | 8.0 | 12.9 | 0.00 | 0.00 | 0.00 | 55 | 1014.5 |
| 20260503002624 | 22 | 50 | 4.8 | 12.9 | 0.00 | 0.00 | 0.00 | 55 | 1014.6 |